Weather History for Cody, WY

Change the Weather History Date:

Sunday, March 24, 2013

  Actual Average Record
Temperature  
Mean Temperature 20 °F -  
Max Temperature 30 °F 52 °F 72 °F (1939)
Min Temperature 10 °F 27 °F -11 °F (1964)
Degree Days  
Heating Degree Days 45    
Moisture  
Dew Point 7 °F    
Average Humidity 60    
Maximum Humidity 92    
Minimum Humidity 34    
Precipitation  
Precipitation 0.00 in - - ()
Sea Level Pressure  
Sea Level Pressure 30.14 in    
Wind  
Wind Speed 5 mph (NNW)    
Max Wind Speed 18 mph    
Max Gust Speed 25 mph    
Visibility 10 miles    
Events      
Averages and records for this station are not official NWS values.
T = Trace of Precipitation, MM = Missing Value Source: NWS Daily Summary

Daily Weather History Graph

Daily Weather History Graph

Search for Another Location

Airport:

Trip Planner

Search our weather history database for the weather conditions in past years. The results will help you decide how hot, cold, wet, or windy it might be!

Date:

Astronomy

Mar. 24, 2013 Rise Set
Actual Time 7:11 AM MDT 7:33 PM MDT
Civil Twilight 6:42 AM MDT 8:03 PM MDT
Nautical Twilight 6:07 AM MDT 8:37 PM MDT
Astronomical Twilight 5:32 AM MDT 9:13 PM MDT
Moon 5:01 PM MDT (3/24) 5:29 AM MDT (3/24)
Length of Visible Light 13h 21m
Length of Day
12h 22m
Waxing Gibbous, 92% of the Moon is Illuminated
Mar 24
Waxing Gibbous
Mar 27
Full
Apr 2
Last Quarter
Apr 10
New
Apr 18
First Quarter

Hourly Weather History & Observations

Time (MDT) Temp. Windchill Dew Point Humidity Pressure Visibility Wind Dir Wind Speed Gust Speed Precip Events Conditions
12:15 AM 17.6 °F 9.3 °F 8.6 °F 68% 30.15 in 10.0 mi NNW 5.8 mph - N/A   Clear
12:35 AM 15.8 °F 8.6 °F 8.6 °F 73% 30.14 in 10.0 mi NNW 4.6 mph - N/A   Clear
12:55 AM 15.8 °F - 8.6 °F 73% 30.14 in 10.0 mi Calm Calm - N/A   Scattered Clouds
1:15 AM 15.8 °F - 8.6 °F 73% 30.14 in 10.0 mi Calm Calm - N/A   Overcast
1:35 AM 15.8 °F 10.2 °F 8.6 °F 73% 30.14 in 10.0 mi WNW 3.5 mph - N/A   Overcast
1:55 AM 15.8 °F - 8.6 °F 73% 30.14 in 10.0 mi Calm Calm - N/A   Overcast
2:15 AM 15.8 °F - 8.6 °F 73% 30.14 in 10.0 mi Calm Calm - N/A   Overcast
2:35 AM 14.0 °F - 8.6 °F 79% 30.13 in 10.0 mi Calm Calm - N/A   Unknown
2:55 AM 14.0 °F - 8.6 °F 79% 30.13 in 10.0 mi Calm Calm - N/A   Mostly Cloudy
3:15 AM 14.0 °F 8.2 °F 6.8 °F 73% 30.13 in 10.0 mi NNW 3.5 mph - N/A   Partly Cloudy
3:35 AM 12.2 °F - 8.6 °F 85% 30.13 in 10.0 mi Calm Calm - N/A   Mostly Cloudy
3:55 AM 14.0 °F - 8.6 °F 79% 30.12 in 10.0 mi Calm Calm - N/A   Overcast
4:15 AM 14.0 °F - 8.6 °F 79% 30.12 in 10.0 mi Calm Calm - N/A   Overcast
4:35 AM 12.2 °F 6.1 °F 8.6 °F 85% 30.12 in 10.0 mi WSW 3.5 mph - N/A   Scattered Clouds
4:55 AM 12.2 °F 4.3 °F 10.4 °F 92% 30.12 in 10.0 mi WSW 4.6 mph - N/A   Clear
5:15 AM 12.2 °F - 6.8 °F 79% 30.13 in 10.0 mi Calm Calm - N/A   Clear
5:35 AM 12.2 °F - 8.6 °F 85% 30.13 in 10.0 mi Calm Calm - N/A   Clear
5:55 AM 10.4 °F - 6.8 °F 85% 30.13 in 10.0 mi Calm Calm - N/A   Scattered Clouds
6:15 AM 10.4 °F - 6.8 °F 85% 30.13 in 10.0 mi Calm Calm - N/A   Partly Cloudy
6:35 AM 10.4 °F 2.2 °F 5.0 °F 79% 30.13 in 10.0 mi SW 4.6 mph - N/A   Clear
6:55 AM 10.4 °F 0.8 °F 6.8 °F 85% 30.13 in 10.0 mi SW 5.8 mph - N/A   Clear
7:15 AM 10.4 °F -0.4 °F 6.8 °F 85% 30.13 in 10.0 mi SW 6.9 mph - N/A   Clear
7:35 AM 10.4 °F 0.8 °F 6.8 °F 85% 30.13 in 10.0 mi SW 5.8 mph - N/A   Partly Cloudy
7:55 AM 12.2 °F 4.3 °F 6.8 °F 79% 30.14 in 10.0 mi WSW 4.6 mph - N/A   Mostly Cloudy
8:15 AM 12.2 °F 2.9 °F 6.8 °F 79% 30.14 in 10.0 mi SSW 5.8 mph - N/A   Mostly Cloudy
8:35 AM 14.0 °F 6.5 °F 10.4 °F 86% 30.14 in 10.0 mi WSW 4.6 mph - N/A   Mostly Cloudy
8:55 AM 15.8 °F 7.2 °F 8.6 °F 73% 30.14 in 10.0 mi WSW 5.8 mph - N/A   Partly Cloudy
9:15 AM 17.6 °F 10.7 °F 8.6 °F 68% 30.14 in 10.0 mi WSW 4.6 mph - N/A   Clear
9:35 AM 19.4 °F 14.3 °F 10.4 °F 68% 30.15 in 10.0 mi SW 3.5 mph - N/A   Clear
9:55 AM 19.4 °F - 8.6 °F 63% 30.15 in 10.0 mi Calm Calm - N/A   Clear
10:15 AM 21.2 °F - 6.8 °F 54% 30.15 in 10.0 mi Calm Calm - N/A   Clear
10:35 AM 23.0 °F 18.4 °F 8.6 °F 54% 30.15 in 10.0 mi NE 3.5 mph - N/A   Scattered Clouds
10:55 AM 24.8 °F 12.9 °F 8.6 °F 50% 30.15 in 10.0 mi North 13.8 mph 20.7 mph N/A   Overcast
11:15 AM 24.8 °F 12.9 °F 8.6 °F 50% 30.15 in 10.0 mi NNE 13.8 mph 18.4 mph N/A   Overcast
11:35 AM 24.8 °F 14.0 °F 6.8 °F 46% 30.15 in 10.0 mi NNE 11.5 mph 16.1 mph N/A   Overcast
11:55 AM 24.8 °F 14.6 °F 10.4 °F 54% 30.15 in 10.0 mi North 10.4 mph 17.3 mph N/A   Mostly Cloudy
12:15 PM 24.8 °F 13.4 °F 6.8 °F 46% 30.14 in 10.0 mi NNE 12.7 mph - N/A   Overcast
12:35 PM 24.8 °F 12.4 °F 6.8 °F 46% 30.14 in 10.0 mi NE 15.0 mph 20.7 mph N/A   Mostly Cloudy
1:15 PM 26.6 °F 17.5 °F 3.2 °F 37% 30.13 in 10.0 mi NNW 9.2 mph - N/A   Mostly Cloudy
1:35 PM 26.6 °F 15.2 °F 3.2 °F 37% 30.13 in 10.0 mi NE 13.8 mph 19.6 mph N/A   Overcast
1:55 PM 26.6 °F 15.7 °F 3.2 °F 37% 30.13 in 10.0 mi North 12.7 mph - N/A   Overcast
2:35 PM 26.6 °F 15.7 °F 6.8 °F 43% 30.13 in 10.0 mi NNE 12.7 mph - N/A   Overcast
2:55 PM 26.6 °F 16.2 °F 6.8 °F 43% 30.13 in 10.0 mi North 11.5 mph 18.4 mph N/A   Overcast
3:35 PM 28.4 °F 15.8 °F 6.8 °F 40% 30.13 in 10.0 mi North 18.4 mph 24.2 mph N/A   Overcast
3:55 PM 28.4 °F 18.5 °F 8.6 °F 43% 30.13 in 10.0 mi NNW 11.5 mph 20.7 mph N/A   Overcast
4:15 PM 30.2 °F 19.8 °F 6.8 °F 37% 30.13 in 10.0 mi NW 13.8 mph - N/A   Mostly Cloudy
4:35 PM 30.2 °F 20.2 °F 6.8 °F 37% 30.13 in 10.0 mi North 12.7 mph 17.3 mph N/A   Mostly Cloudy
4:55 PM 30.2 °F 20.2 °F 6.8 °F 37% 30.13 in 10.0 mi North 12.7 mph 25.3 mph N/A   Overcast
5:15 PM 28.4 °F 19.7 °F 3.2 °F 34% 30.13 in 10.0 mi NNE 9.2 mph 17.3 mph N/A   Overcast
5:35 PM 28.4 °F 19.7 °F 3.2 °F 34% 30.13 in 10.0 mi NE 9.2 mph - N/A   Overcast
5:55 PM 28.4 °F 19.7 °F 5.0 °F 37% 30.13 in 10.0 mi NNE 9.2 mph - N/A   Overcast
6:15 PM 28.4 °F 17.5 °F 6.8 °F 40% 30.13 in 10.0 mi North 13.8 mph - N/A   Mostly Cloudy
6:35 PM 28.4 °F 19.1 °F 6.8 °F 40% 30.13 in 10.0 mi North 10.4 mph - N/A   Overcast
6:55 PM 28.4 °F 18.5 °F 5.0 °F 37% 30.14 in 10.0 mi North 11.5 mph - N/A   Overcast
7:15 PM 26.6 °F 16.8 °F 5.0 °F 40% 30.14 in 10.0 mi North 10.4 mph - N/A   Overcast
7:35 PM 26.6 °F 17.5 °F 5.0 °F 40% 30.14 in 10.0 mi North 9.2 mph - N/A   Overcast
7:55 PM 24.8 °F 16.1 °F 3.2 °F 40% 30.15 in 10.0 mi North 8.1 mph - N/A   Scattered Clouds
8:15 PM 23.0 °F 14.7 °F 3.2 °F 43% 30.15 in 10.0 mi North 6.9 mph - N/A   Clear
8:35 PM 23.0 °F 17.0 °F 3.2 °F 43% 30.15 in 10.0 mi North 4.6 mph - N/A   Clear
8:55 PM 21.2 °F - 3.2 °F 46% 30.15 in 10.0 mi Calm Calm - N/A   Clear
9:15 PM 21.2 °F - 3.2 °F 46% 30.16 in 10.0 mi Calm Calm - N/A   Clear
9:35 PM 21.2 °F - 3.2 °F 46% 30.16 in 10.0 mi Calm Calm - N/A   Clear
9:55 PM 17.6 °F 12.3 °F 1.4 °F 49% 30.17 in 10.0 mi SE 3.5 mph - N/A   Clear
10:15 PM 17.6 °F 9.3 °F 1.4 °F 49% 30.17 in 10.0 mi South 5.8 mph - N/A   Clear
10:55 PM 15.8 °F 8.6 °F 3.2 °F 58% 30.17 in 10.0 mi South 4.6 mph - N/A   Clear
11:15 PM 15.8 °F 8.6 °F 6.8 °F 68% 30.17 in 10.0 mi SW 4.6 mph - N/A   Clear
11:35 PM 15.8 °F 10.2 °F 8.6 °F 73% 30.16 in 10.0 mi South 3.5 mph - N/A   Clear
11:55 PM 17.6 °F 9.3 °F 6.8 °F 63% 30.16 in 10.0 mi SW 5.8 mph - N/A   Clear